GW2134 Weather Reports


time (UTC)temp
F
wind
direction
speed
knots
gust
knots
rain 1hr
in
rain 24hr
in
rain mn
in
humidity
%
barometer
mb
20260506143055 61 360 0.9 10.4 0.00 0.98 0.98 68 1012.3
20260506141610 60 167 4.3 11.3 0.00 0.98 0.98 67 1012.3
20260506140054 60 0 0.0 7.8 0.00 0.98 0.98 74 1012.3
20260506134601 59 189 2.6 7.0 0.00 0.98 0.98 76 1012.6
20260506133108 59 360 1.7 7.0 0.00 0.98 0.98 74 1012.5
20260506131557 58 360 1.7 7.8 0.01 0.98 0.98 76 1012.7
20260506130055 57 360 1.7 5.2 0.03 0.98 0.98 80 1012.8
20260506124549 55 333 0.9 6.1 0.07 0.98 0.98 82 1013.0
20260506123051 54 27 1.7 4.3 0.08 0.98 0.98 86 1013.3
20260506121610 54 360 2.6 5.2 0.09 0.96 0.96 86 1012.9
20260506120119 54 360 1.7 7.8 0.09 0.93 0.93 86 1012.4
20260506114551 54 13 1.7 10.4 0.06 0.90 0.90 86 1012.4
20260506113051 54 95 4.3 13.9 0.06 0.89 0.89 88 1012.5
20260506111555 56 263 4.3 9.6 0.03 0.87 0.87 91 1012.4
20260506110054 56 0 0.0 4.3 0.00 0.84 0.84 91 1012.4
20260506104550 56 68 0.9 5.2 0.00 0.85 0.84 91 1012.4
20260506103055 56 291 0.0 7.0 0.00 0.84 0.83 92 1012.3
20260506101552 55 21 1.7 6.1 0.00 0.84 0.83 92 1012.5
20260506100054 55 119 0.0 5.2 0.00 0.84 0.83 92 1012.4
20260506094551 54 0 0.0 7.0 0.02 0.96 0.83 93 1012.5
20260506093054 54 174 0.9 6.1 0.03 0.95 0.82 93 1012.7
20260506091556 54 129 2.6 7.0 0.03 0.95 0.82 92 1012.5
20260506090052 54 325 1.7 11.3 0.06 0.95 0.82 92 1012.5
20260506084548 54 169 2.6 10.4 0.04 1.00 0.81 92 1012.4
20260506083049 54 0 0.0 3.5 0.03 0.98 0.79 93 1012.4
20260506081554 54 0 0.0 3.5 0.03 0.97 0.78 93 1012.3
20260506073058 53 31 0.0 4.3 0.07 0.98 0.75 93 1012.2
20260506071556 53 0 0.0 2.6 0.07 0.97 0.74 93 1012.3
20260506070116 52 0 0.0 1.7 0.06 0.96 0.74 93 1012.4
20260506061603 52 0 0.0 2.6 0.05 0.92 0.67 92 1012.4
20260506050110 52 18 0.0 3.5 0.13 1.01 0.60 92 1012.9
20260506044559 51 347 0.0 4.3 0.15 1.02 0.58 92 1012.9
20260506043053 51 355 0.9 3.5 0.17 0.98 0.54 92 1012.8
20260506041556 51 333 1.7 3.5 0.18 0.96 0.51 92 1012.9
20260506040059 52 0 0.0 1.7 0.15 0.91 0.47 92 1012.9
20260506034553 52 0 0.0 0.9 0.15 0.89 0.42 92 1013.4
20260506033059 52 127 0.0 2.6 0.10 0.84 0.37 92 1013.5
20260506031603 52 0 0.0 0.9 0.06 0.80 0.33 91 1013.5
20260506030115 52 164 0.0 0.9 0.04 0.78 0.31 91 1013.6
20260506024556 52 164 0.0 1.7 0.03 0.76 0.26 91 1013.6
20260506023052 52 0 0.0 1.7 0.07 0.76 0.26 91 1013.7
20260506021553 53 172 0.0 3.5 0.07 0.76 0.26 91 1013.7
20260506020053 53 0 0.0 3.5 0.09 0.76 0.26 91 1014.0
20260506014602 53 192 0.0 4.3 0.09 0.73 0.23 91 1014.1
20260506013058 53 186 0.9 3.5 0.07 0.69 0.19 90 1013.9
20260506011559 54 0 0.0 3.5 0.07 0.68 0.18 91 1014.0
20260506010058 54 344 0.0 2.6 0.06 0.66 0.16 90 1014.3
20260506004625 54 0 0.0 2.6 0.06 0.63 0.14 90 1014.4
20260506003058 54 18 0.9 1.7 0.05 0.62 0.12 90 1014.6
20260506001600 54 0 0.0 3.5 0.04 0.61 0.11 90 1014.6
20260506000100 54 355 1.7 4.3 0.05 0.59 0.10 90 1014.2
20260505234614 54 0 0.0 1.7 0.05 0.57 0.07 89 1014.7
20260505233051 54 348 1.7 3.5 0.07 0.56 0.07 88 1014.7
20260505231554 54 0 0.0 0.9 0.07 0.56 0.07 88 1015.1
20260505230053 54 360 0.9 3.5 0.04 0.54 0.04 87 1015.0
20260505224553 55 326 0.9 3.5 0.02 0.51 0.02 85 1015.1
20260505223103 55 112 0.0 2.6 0.00 0.49 0.00 85 1015.4
20260505221606 55 338 0.9 3.5 0.00 0.49 0.00 83 1015.2
20260505220130 55 0 0.0 2.6 0.00 0.49 0.00 81 1015.7
20260505214604 55 0 0.9 2.6 0.00 0.49 0.49 79 1015.7
20260505213051 55 0 0.0 4.3 0.00 0.49 0.49 79 1015.7
20260505211611 55 325 2.6 4.3 0.00 0.49 0.49 77 1015.7
20260505210052 56 0 0.0 1.7 0.00 0.49 0.49 74 1016.0
20260505204558 57 0 0.0 2.6 0.00 0.49 0.49 71 1015.8
20260505203054 57 0 0.0 0.9 0.00 0.49 0.49 70 1015.7
20260505201602 57 0 0.0 0.9 0.00 0.49 0.49 70 1015.8
20260505200101 58 0 0.0 1.7 0.00 0.49 0.49 69 1015.7
20260505194602 58 306 0.9 5.2 0.00 0.49 0.49 69 1015.4
20260505193052 58 5 0.0 5.2 0.00 0.49 0.49 71 1015.5
20260505191554 58 0 0.9 3.5 0.00 0.49 0.49 70 1015.3
20260505190100 58 0 0.0 3.5 0.00 0.49 0.49 69 1015.2
20260505184550 58 0 0.0 5.2 0.00 0.49 0.49 68 1015.2
20260505183055 58 0 0.0 2.6 0.00 0.49 0.49 67 1015.2
20260505181554 59 0 0.9 3.5 0.00 0.49 0.49 67 1015.1
20260505174552 61 0 0.0 5.2 0.00 0.49 0.49 64 1015.0
20260505173053 62 0 0.0 1.7 0.00 0.49 0.49 62 1014.9
20260505171555 63 0 0.0 3.5 0.00 0.49 0.49 61 1015.0
20260505170053 63 0 0.9 3.5 0.00 0.49 0.49 60 1015.1
20260505164600 64 215 0.9 10.4 0.00 0.49 0.49 59 1014.9
20260505163053 65 128 1.7 6.1 0.00 0.49 0.49 56 1014.9
20260505161558 66 153 2.6 7.0 0.00 0.49 0.49 54 1014.8
20260505153054 67 186 3.5 10.4 0.00 0.49 0.49 54 1014.8
20260505151550 68 58 3.5 13.9 0.00 0.49 0.49 52 1014.6